TimeCDT,TemperatureF,Dew PointF,Humidity,Sea Level PressureIn,VisibilityMPH,Wind Direction,Wind SpeedMPH,Gust SpeedMPH,PrecipitationIn,Events,Conditions,WindDirDegrees,DateUTC
12:15 AM,56.5,50.2,79,30.03,10.0,Calm,Calm,-,N/A,,Unknown,0,2013-07-29 05:15:00
12:35 AM,55.4,48.9,79,30.04,10.0,Calm,Calm,-,N/A,,Unknown,0,2013-07-29 05:35:00
12:55 AM,55.4,48.7,78,30.04,7.0,Calm,Calm,-,N/A,,Unknown,0,2013-07-29 05:55:00
1:15 AM,56.7,50.5,80,30.04,7.0,Calm,Calm,-,N/A,,Unknown,0,2013-07-29 06:15:00
1:35 AM,57.2,50.9,79,30.04,7.0,Calm,Calm,-,N/A,,Unknown,0,2013-07-29 06:35:00
1:55 AM,54.9,48.4,79,30.04,10.0,Calm,Calm,-,N/A,,Unknown,0,2013-07-29 06:55:00
2:15 AM,53.2,47.3,80,30.05,7.0,Calm,Calm,-,N/A,,Unknown,0,2013-07-29 07:15:00
2:55 AM,52.2,46.4,81,30.05,10.0,Calm,Calm,-,N/A,,Unknown,0,2013-07-29 07:55:00
3:15 AM,51.4,45.5,80,30.05,10.0,Calm,Calm,-,N/A,,Unknown,0,2013-07-29 08:15:00
3:35 AM,50.9,45.1,81,30.06,7.0,Calm,Calm,-,N/A,,Unknown,0,2013-07-29 08:35:00
3:55 AM,50.9,45.0,80,30.06,7.0,Calm,Calm,-,N/A,,Unknown,0,2013-07-29 08:55:00
4:15 AM,50.2,44.6,81,30.06,7.0,Calm,Calm,-,N/A,,Unknown,0,2013-07-29 09:15:00
4:35 AM,50.0,44.2,81,30.07,7.0,Calm,Calm,-,N/A,,Unknown,0,2013-07-29 09:35:00
4:55 AM,50.4,45.0,82,30.08,10.0,Calm,Calm,-,N/A,,Unknown,0,2013-07-29 09:55:00
5:15 AM,49.6,44.2,82,30.09,10.0,Calm,Calm,-,N/A,,Unknown,0,2013-07-29 10:15:00
5:35 AM,49.5,44.6,83,30.09,10.0,Calm,Calm,-,N/A,,Unknown,0,2013-07-29 10:35:00
5:55 AM,49.5,44.6,83,30.10,10.0,Calm,Calm,-,N/A,,Unknown,0,2013-07-29 10:55:00
6:15 AM,50.2,45.7,85,30.10,10.0,Calm,Calm,-,N/A,,Unknown,0,2013-07-29 11:15:00
6:35 AM,53.6,49.8,87,30.10,10.0,Calm,Calm,-,N/A,,Unknown,0,2013-07-29 11:35:00
6:55 AM,56.7,52.9,87,30.11,10.0,Calm,Calm,-,N/A,,Clear,0,2013-07-29 11:55:00
7:15 AM,60.1,55.8,86,30.11,10.0,Calm,Calm,-,N/A,,Clear,0,2013-07-29 12:15:00
7:35 AM,62.8,57.6,83,30.11,7.0,Calm,Calm,-,N/A,,Unknown,0,2013-07-29 12:35:00
7:55 AM,65.8,58.6,78,30.11,7.0,West,4.6,-,N/A,,Unknown,270,2013-07-29 12:55:00
8:15 AM,67.5,59.0,74,30.12,7.0,Calm,Calm,-,N/A,,Unknown,0,2013-07-29 13:15:00
8:35 AM,69.1,56.8,65,30.12,7.0,West,3.5,-,N/A,,Clear,270,2013-07-29 13:35:00
8:55 AM,70.9,56.5,60,30.13,5.0,West,3.5,-,N/A,,Haze,280,2013-07-29 13:55:00
9:15 AM,71.4,55.4,57,30.13,7.0,WNW,3.5,-,N/A,,Clear,290,2013-07-29 14:15:00
9:35 AM,73.0,53.8,51,30.13,7.0,NW,6.9,-,N/A,,Clear,310,2013-07-29 14:35:00
9:55 AM,73.8,54.7,51,30.14,7.0,West,5.8,-,N/A,,Clear,260,2013-07-29 14:55:00
10:15 AM,75.2,52.9,46,30.14,7.0,WNW,6.9,-,N/A,,Clear,300,2013-07-29 15:15:00
10:35 AM,76.5,53.4,45,30.14,7.0,Calm,Calm,-,N/A,,Clear,0,2013-07-29 15:35:00
10:55 AM,77.0,52.3,42,30.15,7.0,NW,6.9,-,N/A,,Clear,320,2013-07-29 15:55:00
11:15 AM,77.9,53.2,42,30.14,7.0,NW,8.1,-,N/A,,Clear,310,2013-07-29 16:15:00
11:35 AM,78.4,52.3,40,30.14,10.0,WNW,5.8,-,N/A,,Clear,290,2013-07-29 16:35:00
11:55 AM,79.2,52.7,40,30.14,10.0,West,8.1,-,N/A,,Clear,280,2013-07-29 16:55:00
12:15 PM,80.8,52.3,37,30.14,7.0,NNW,5.8,-,N/A,,Clear,330,2013-07-29 17:15:00
12:35 PM,80.2,54.1,40,30.14,7.0,Calm,Calm,-,N/A,,Clear,0,2013-07-29 17:35:00
12:55 PM,81.0,52.3,37,30.13,10.0,NNW,4.6,-,N/A,,Clear,330,2013-07-29 17:55:00
1:15 PM,81.9,51.8,35,30.13,7.0,West,5.8,-,N/A,,Clear,270,2013-07-29 18:15:00
1:35 PM,82.9,53.1,36,30.13,7.0,West,5.8,-,N/A,,Clear,270,2013-07-29 18:35:00
1:55 PM,83.7,53.1,35,30.13,10.0,Calm,Calm,-,N/A,,Clear,0,2013-07-29 18:55:00
2:15 PM,83.7,54.1,36,30.13,5.0,South,3.5,-,N/A,,Haze,180,2013-07-29 19:15:00
2:35 PM,84.7,54.9,36,30.13,10.0,SSW,3.5,-,N/A,,Clear,200,2013-07-29 19:35:00
2:55 PM,84.0,54.9,37,30.12,10.0,SSW,3.5,-,N/A,,Clear,210,2013-07-29 19:55:00
3:15 PM,84.4,54.9,36,30.13,10.0,SW,3.5,-,N/A,,Clear,220,2013-07-29 20:15:00
3:35 PM,83.7,55.0,37,30.13,10.0,WSW,5.8,-,N/A,,Clear,250,2013-07-29 20:35:00
3:55 PM,83.3,54.1,37,30.13,10.0,SW,3.5,-,N/A,,Clear,230,2013-07-29 20:55:00
4:15 PM,82.8,54.3,37,30.13,10.0,West,10.4,-,N/A,,Clear,260,2013-07-29 21:15:00
4:35 PM,81.5,55.2,40,30.13,10.0,SW,4.6,-,N/A,,Clear,220,2013-07-29 21:35:00
4:55 PM,81.1,53.2,38,30.13,10.0,WSW,5.8,-,N/A,,Clear,240,2013-07-29 21:55:00
5:15 PM,82.0,52.2,35,30.15,10.0,West,4.6,-,N/A,,Clear,260,2013-07-29 22:15:00
5:35 PM,79.7,54.3,41,30.14,10.0,SW,5.8,-,N/A,,Clear,230,2013-07-29 22:35:00
5:55 PM,79.7,54.7,42,30.14,10.0,Calm,Calm,-,N/A,,Clear,0,2013-07-29 22:55:00
6:15 PM,80.6,52.7,38,30.13,10.0,West,3.5,-,N/A,,Clear,280,2013-07-29 23:15:00
6:35 PM,78.1,55.4,45,30.13,10.0,Calm,Calm,-,N/A,,Clear,0,2013-07-29 23:35:00
6:55 PM,76.5,55.6,48,30.14,10.0,Calm,Calm,-,N/A,,Clear,0,2013-07-29 23:55:00
7:15 PM,74.7,55.8,52,30.13,10.0,Calm,Calm,-,N/A,,Clear,0,2013-07-30 00:15:00
7:35 PM,72.5,55.6,55,30.14,10.0,Calm,Calm,-,N/A,,Clear,0,2013-07-30 00:35:00
7:55 PM,69.1,54.1,59,30.14,7.0,Calm,Calm,-,N/A,,Clear,0,2013-07-30 00:55:00
8:15 PM,65.7,52.0,61,30.14,10.0,Calm,Calm,-,N/A,,Clear,0,2013-07-30 01:15:00
8:35 PM,63.7,52.7,67,30.15,7.0,South,3.5,-,N/A,,Clear,190,2013-07-30 01:35:00
8:55 PM,62.6,51.4,67,30.15,7.0,Calm,Calm,-,N/A,,Clear,0,2013-07-30 01:55:00
9:15 PM,61.7,51.3,69,30.15,7.0,Calm,Calm,-,N/A,,Clear,0,2013-07-30 02:15:00
9:35 PM,60.3,50.2,69,30.15,10.0,Calm,Calm,-,N/A,,Clear,0,2013-07-30 02:35:00
9:55 PM,59.4,49.5,70,30.15,10.0,Calm,Calm,-,N/A,,Clear,0,2013-07-30 02:55:00
10:15 PM,58.5,48.9,71,30.16,10.0,Calm,Calm,-,N/A,,Unknown,0,2013-07-30 03:15:00
10:35 PM,57.6,48.2,71,30.16,10.0,Calm,Calm,-,N/A,,Unknown,0,2013-07-30 03:35:00
10:55 PM,57.2,47.8,71,30.16,10.0,Calm,Calm,-,N/A,,Unknown,0,2013-07-30 03:55:00
11:15 PM,56.3,47.5,72,30.16,10.0,Calm,Calm,-,N/A,,Unknown,0,2013-07-30 04:15:00
11:35 PM,55.8,47.1,73,30.16,10.0,Calm,Calm,-,N/A,,Unknown,0,2013-07-30 04:35:00
11:55 PM,55.8,47.8,75,30.16,7.0,Calm,Calm,-,N/A,,Unknown,0,2013-07-30 04:55:00